This is the latest recevied weather packets stored in our database for station/object KI7JYE. If no packets are shown the sender has not sent any weather packets the latest 10 day(s).
| Time | Temp. | Humidity | Pressure | Rain* | Wind** | Luminosity | Snow |
|---|---|---|---|---|---|---|---|
| 1777774651 | 18.89° C | 73% | 1011.5 hPa | 0 mm | - | 48 W/m² | - |
| 1777774347 | 18.89° C | 73% | 1011.8 hPa | 0 mm | - | 54 W/m² | - |
| 1777774045 | 18.89° C | 73% | 1011.7 hPa | 0 mm | - | 58 W/m² | - |
| 1777773742 | 18.89° C | 73% | 1012 hPa | 0 mm | - | 62 W/m² | - |
| 1777773439 | 18.89° C | 72% | 1011.7 hPa | 0 mm | - | 66 W/m² | - |
| 1777773136 | 19.44° C | 71% | 1011.8 hPa | 0 mm | - | 70 W/m² | - |
| 1777770408 | 20° C | 69% | 1010.4 hPa | 0 mm | - | 149 W/m² | - |
| 1777768288 | 19.44° C | 70% | 1010.3 hPa | 0 mm | - | 149 W/m² | - |
| 1777767985 | 20° C | 69% | 1010.2 hPa | 0 mm | - | 141 W/m² | - |
| 1777767682 | 20° C | 68% | 1010.2 hPa | 0 mm | - | 137 W/m² | - |
| 1777767378 | 20.56° C | 68% | 1010.2 hPa | 0 mm | - | 140 W/m² | - |
| 1777767075 | 20° C | 69% | 1010.3 hPa | 0 mm | - | 145 W/m² | - |
| 1777766166 | 20° C | 67% | 1010.4 hPa | 0 mm | - | 161 W/m² | - |
| 1777765257 | 20° C | 67% | 1010.4 hPa | 0 mm | - | 171 W/m² | - |
| 1777764952 | 20.56° C | 66% | 1010.6 hPa | 0 mm | - | 189 W/m² | - |
| 1777764649 | 20° C | 68% | 1011.1 hPa | 0 mm | - | 185 W/m² | - |
| 1777764345 | 21.11° C | 66% | 1011 hPa | 0 mm | - | 156 W/m² | - |
| 1777764043 | 21.11° C | 64% | 1010.8 hPa | 0 mm | - | 151 W/m² | - |
| 1777761620 | 20.56° C | 63% | 1011.3 hPa | 0 mm | - | 253 W/m² | - |
| 1777761317 | 21.11° C | 60% | 1011.4 hPa | 0 mm | - | 314 W/m² | - |
| 1777761015 | 20.56° C | 61% | 1011.6 hPa | 0 mm | - | 376 W/m² | - |
| 1777760409 | 20.56° C | 62% | 1011.7 hPa | 0 mm | - | 492 W/m² | - |
| 1777760104 | 20.56° C | 61% | 1011.8 hPa | 0 mm | - | 476 W/m² | - |
| 1777759804 | 20.56° C | 62% | 1011.7 hPa | 0 mm | - | 491 W/m² | - |
| 1777758892 | 20.56° C | 63% | 1012 hPa | 0 mm | - | 555 W/m² | - |
* Rain latest hour (hover to see other rain measurements)
** Current wind speed in m/s (hover to see current wind gust speed)